Location: Delettes
(50.6178°N, 2.2123°E)
Time: 23:49:20
(UTC+00:00)

Meteor 1-5 Rocket - Pass Details

Date: 27 February 2020
Orbit: 789 x 915 km, 81.2° (Epoch: 09 April)

Event Time Altitude Azimuth Distance (km) Brightness Sun altitude
Rises 19:51:55 0° 189° (S) 3,338 7.2 -23.4°
Reaches altitude 10° 19:54:15 10° 189° (S) 2,427 6.5 -23.7°
Maximum altitude 19:59:46 87° 101° (E) 857 4.1 -24.6°
Drops below altitude 10° 20:05:32 10° 13° (NNE) 2,531 6.7 -25.4°
Sets 20:08:01 0° 13° (NNE) 3,491 7.5 -25.8°
